TimeEDT,TemperatureF,Dew PointF,Humidity,Sea Level PressureIn,VisibilityMPH,Wind Direction,Wind SpeedMPH,Gust SpeedMPH,PrecipitationIn,Events,Conditions,WindDirDegrees,DateUTC
12:54 AM,32.0,28.4,87,30.27,10.0,SW,11.5,-,N/A,,Scattered Clouds,230,2013-03-11 04:54:00
1:03 AM,32.0,28.9,88,30.27,10.0,SW,12.7,-,N/A,,Mostly Cloudy,220,2013-03-11 05:03:00
1:54 AM,32.0,30.0,92,30.30,10.0,SSW,11.5,-,N/A,,Overcast,210,2013-03-11 05:54:00
2:54 AM,32.0,30.0,92,30.28,10.0,SSW,10.4,-,N/A,,Overcast,210,2013-03-11 06:54:00
3:37 AM,32.0,30.0,92,30.24,10.0,SW,9.2,-,N/A,,Overcast,220,2013-03-11 07:37:00
3:54 AM,32.0,30.0,92,30.27,10.0,SW,10.4,-,N/A,,Overcast,230,2013-03-11 07:54:00
4:54 AM,30.9,30.0,96,30.26,10.0,SSW,9.2,-,N/A,,Overcast,210,2013-03-11 08:54:00
5:54 AM,30.9,28.9,92,30.25,10.0,SW,12.7,-,N/A,,Overcast,220,2013-03-11 09:54:00
6:54 AM,30.9,28.9,92,30.25,10.0,SW,10.4,-,N/A,,Overcast,220,2013-03-11 10:54:00
7:54 AM,32.0,30.0,92,30.25,10.0,SW,9.2,-,N/A,,Unknown,220,2013-03-11 11:54:00
8:20 AM,32.0,30.0,92,30.22,10.0,SW,12.7,-,N/A,,Overcast,230,2013-03-11 12:20:00
8:54 AM,34.0,30.9,89,30.25,10.0,SW,11.5,-,N/A,,Overcast,230,2013-03-11 12:54:00
9:54 AM,36.0,32.0,86,30.25,10.0,SW,12.7,-,N/A,,Mostly Cloudy,220,2013-03-11 13:54:00
10:08 AM,37.0,32.0,82,30.22,10.0,SSW,13.8,-,N/A,,Partly Cloudy,210,2013-03-11 14:08:00
10:54 AM,39.0,32.0,76,30.26,10.0,SW,10.4,-,N/A,,Clear,230,2013-03-11 14:54:00
11:54 AM,41.0,30.9,67,30.26,10.0,SW,12.7,-,N/A,,Clear,230,2013-03-11 15:54:00
12:54 PM,43.0,32.0,65,30.25,10.0,SW,9.2,-,N/A,,Clear,220,2013-03-11 16:54:00
1:54 PM,44.1,32.0,63,30.22,10.0,SSW,8.1,-,N/A,,Clear,200,2013-03-11 17:54:00
2:54 PM,46.0,32.0,58,30.19,10.0,SSW,12.7,-,N/A,,Clear,200,2013-03-11 18:54:00
3:54 PM,46.9,32.0,56,30.19,10.0,SSW,12.7,-,N/A,,Mostly Cloudy,200,2013-03-11 19:54:00
4:54 PM,46.0,32.0,58,30.18,10.0,SSW,10.4,-,N/A,,Partly Cloudy,200,2013-03-11 20:54:00
5:54 PM,45.0,34.0,65,30.18,10.0,SSW,9.2,-,N/A,,Clear,200,2013-03-11 21:54:00
6:54 PM,42.8,35.6,76,30.14,10.0,SSW,10.4,-,N/A,,Clear,210,2013-03-11 22:54:00
7:54 PM,42.1,36.0,79,30.17,10.0,South,9.2,-,N/A,,Partly Cloudy,190,2013-03-11 23:54:00
8:11 PM,42.1,37.0,82,30.14,10.0,SSW,9.2,-,N/A,,Mostly Cloudy,200,2013-03-12 00:11:00
8:54 PM,41.0,37.0,86,30.18,10.0,SSW,11.5,-,N/A,,Mostly Cloudy,200,2013-03-12 00:54:00
9:54 PM,41.0,37.9,89,30.17,10.0,SSW,15.0,-,N/A,,Mostly Cloudy,210,2013-03-12 01:54:00
10:20 PM,41.0,39.0,93,30.13,10.0,SSW,12.7,21.9,N/A,,Mostly Cloudy,200,2013-03-12 02:20:00
10:27 PM,41.0,39.0,93,30.13,10.0,SSW,12.7,21.9,N/A,,Mostly Cloudy,210,2013-03-12 02:27:00
10:36 PM,41.0,39.0,93,30.12,10.0,SSW,11.5,-,N/A,,Overcast,210,2013-03-12 02:36:00
10:54 PM,41.0,39.0,93,30.15,10.0,SSW,13.8,-,N/A,,Overcast,200,2013-03-12 02:54:00
11:54 PM,41.0,39.9,96,30.14,10.0,SSW,15.0,-,N/A,,Overcast,200,2013-03-12 03:54:00